[[{"header":{"parameterUnit":"m.s-1","parameterCategory":1,"la1":30.2991,"la2":30.254,"lo1":-89.0895,"lo2":-89.0444,"dy":0.0017,"dx":0.0017,"nx":28,"ny":28,"refTime":"2025-08-01T03:00:00:Z","depth":0,"parameterNumber":2,"parameterNumberName":"U-component_of_WINDS"},"data":[0,0,0,0,0,0,0,0,0,0,0,0,0,0,0,0,0,0,0,0,0,0,0,0,0,0,0,0,0,0,0,0,0,0,0,0,0,0,0,0,0,0,0,0,0,0,0,0,0,0,0,0,0,0,0,0,0,0,2.9682,2.9683,0,2.9791,2.9793,2.9794,2.9748,2.9745,2.9743,2.974,2.9854,2.9859,2.9864,0,0,0,0,0,0,0,0,0,0,0,0,0,2.9432,2.9437,2.9682,2.9683,2.9684,2.9791,2.9793,2.9794,2.9748,2.9745,2.9742,2.9739,2.9852,2.9858,2.9865,0,0,0,0,0,0,0,0,0,0,0,0,0,2.9541,2.9438,2.9681,2.9674,2.9675,2.9791,2.9793,2.9795,2.9749,2.9745,2.9741,2.9737,2.985,2.9858,2.9866,2.9996,0,0,2.9891,2.9894,0,0,0,0,0,0,0,0,2.9535,2.955,2.9674,2.9675,2.9676,2.9752,2.9746,2.9862,2.975,2.9721,2.974,2.9735,2.9823,2.9833,2.9862,3.0001,3.0006,2.9892,2.9897,2.99,2.9902,0,0,0,0,0,0,0,2.9527,2.9545,2.9725,2.9676,2.9677,2.9666,2.9677,2.9768,2.9793,2.9723,2.972,2.9734,2.9823,2.9855,2.9865,3.0008,2.9891,2.9899,2.9904,2.9907,3.0256,3.026,0,0,0,0,0,0,2.952,2.9539,2.9722,2.9728,2.9594,2.9673,2.9686,2.9731,2.9792,2.9797,2.9737,2.9731,2.9843,2.9855,2.9869,3.0022,2.99,2.9908,2.9912,3.0251,3.0257,3.0261,0,0,0,0,0,0,2.9514,2.9536,2.9717,2.9633,2.9655,2.9682,2.9734,2.9736,2.9767,2.9802,2.9806,2.9765,2.984,2.9857,2.9964,3.0026,2.9911,2.9919,3.0246,3.0253,3.0259,3.0333,0,0,0,0,0,0,2.9508,2.9535,2.9585,2.9634,2.966,2.9811,2.9737,2.9741,2.9782,2.9775,2.9829,2.9835,2.9838,2.9952,2.9972,3.0035,2.9925,3.0241,3.0249,3.0257,3.0325,3.0341,3.0355,0,0,0,0,0,2.9499,2.9602,2.9587,2.961,2.9723,2.9815,2.9829,2.983,2.9787,2.9837,2.9859,2.9833,3.0016,2.9963,2.9985,3.0052,3.0237,3.0247,3.0256,3.0318,3.0338,3.0354,0,0,0,0,0,0,2.9559,2.9608,2.9593,2.9715,2.9761,2.9806,2.987,2.9852,2.9911,2.9902,2.9902,2.9915,3.0025,3.0049,2.9989,3.018,3.012,3.0135,3.0159,3.0178,3.0193,3.0184,2.9932,0,0,0,0,0,2.9587,2.9657,2.9696,2.9801,2.9824,2.9843,2.9883,2.988,2.9928,2.9947,2.9977,3.0024,3.0092,3.0137,3.0202,3.0329,3.0339,3.0386,3.04,3.0413,3.0425,3.0491,3.0512,3.0293,3.0293,3.0293,0,0,2.9645,2.968,2.9725,2.9814,2.9849,2.9921,2.986,2.994,2.9993,2.9959,3.0061,3.0085,3.0137,3.0254,3.0307,3.0278,3.0487,3.0425,3.0434,3.044,3.0504,3.0524,3.0543,3.03,3.0299,3.0298,0,0,2.9786,2.9821,2.991,2.9946,3.0,3.0011,3.0033,3.0081,3.0095,3.0197,3.0173,3.0237,3.0355,3.0392,3.0427,3.0581,3.0559,3.0603,3.068,3.0745,3.0762,3.0777,3.083,3.0849,3.0615,3.0615,3.0615,0,2.9851,2.9959,2.9959,3.004,3.0079,3.0051,3.0141,3.0176,3.0248,3.0276,3.0242,3.0388,3.0422,3.0545,3.0583,3.0613,3.0636,3.0595,3.076,3.0775,3.0789,3.0839,3.086,3.062,3.0619,3.0619,3.0618,0,3.0035,3.011,3.0176,3.0245,3.0292,3.0377,3.0389,3.0436,3.0429,3.0444,3.0547,3.0587,3.0658,3.0687,3.0682,3.0811,3.079,3.0759,3.0698,3.0815,3.0862,3.0881,3.0627,3.0625,3.0623,3.0622,0,0,3.0217,3.0284,3.0308,3.0338,3.0394,3.0452,3.0536,3.0605,3.0644,3.0695,3.0764,3.0863,3.0834,3.0873,3.0872,3.0929,3.1046,3.089,3.0891,3.0915,3.1187,3.1209,3.1232,3.1032,3.1036,3.1039,3.1182,0,3.0361,3.0506,3.0508,3.0642,3.071,3.0684,3.0757,3.0799,3.0815,3.0875,3.0893,3.0963,3.092,3.0943,3.0999,3.102,3.11,3.101,3.1095,3.1098,3.108,3.1257,3.1281,3.1414,3.1201,3.1204,3.1206,0,3.0548,3.0603,3.0744,3.0788,3.0817,3.0882,3.0944,3.1002,3.1049,3.1057,3.11,3.1089,3.1174,3.1112,3.1227,3.1165,3.1201,3.1216,3.1221,3.1228,3.1158,3.1266,3.1456,3.1476,3.1236,3.1233,3.1231,0,3.0664,3.0774,3.0871,3.0898,3.0953,3.0999,3.1024,3.1067,3.1108,3.1162,3.1188,3.1253,3.1287,3.1337,3.1343,3.1298,3.1459,3.1398,3.1466,3.1466,3.15,3.1497,3.1696,3.1526,3.1526,3.1525,3.1525,0,3.0823,3.0909,3.0923,3.0983,3.1078,3.1079,3.1174,3.1195,3.1233,3.1296,3.1279,3.1338,3.1345,3.1406,3.1412,3.1505,3.1522,3.1529,3.1529,3.153,3.1528,3.1551,3.1541,3.1531,3.153,3.1528,3.1528,0,3.0968,3.0981,3.1085,3.1128,3.1141,3.1209,3.1246,3.1303,3.1317,3.1397,3.1415,3.1438,3.1509,3.1521,3.1605,3.1609,3.1719,3.1711,3.1703,3.1701,3.1768,3.1761,3.1988,3.2016,3.1829,3.1831,3.1833,0,3.1068,3.1133,3.1183,3.1223,3.125,3.1316,3.1357,3.1361,3.1404,3.1461,3.1511,3.158,3.1635,3.1749,3.1773,3.1837,3.1828,3.1904,3.1838,3.1835,3.1827,3.1822,3.1828,3.1916,3.1918,3.1919,3.1921,0,3.1242,3.1245,3.1304,3.1366,3.1414,3.1463,3.1509,3.1544,3.1553,3.1602,3.1674,3.1717,3.1801,3.1869,3.1932,3.1958,3.1941,3.1941,3.196,3.196,3.1951,3.1954,3.1735,3.1936,3.1934,3.1933,3.1932,3.1932,3.1366,3.1422,3.1465,3.1531,3.1566,3.1609,3.1663,3.1684,3.1744,3.1812,3.1811,3.1889,3.1933,3.2016,3.2046,3.2106,3.2082,3.211,3.2117,3.2123,3.2128,3.1943,3.2118,3.2118,3.2118,3.2117,3.2117,0,3.1538,3.1564,3.1625,3.1689,3.174,3.1719,3.1769,3.1813,3.1882,3.1924,3.1978,3.206,3.2126,3.2154,3.2219,3.2262,3.2255,3.2279,3.2274,3.228,3.2147,3.2123,3.2283,3.2282,3.2282,3.2282,3.2282,3.2282,3.1633,3.1725,3.1733,3.1843,3.1868,3.1944,3.1974,3.2013,3.2046,3.2138,3.2192,3.221,3.2246,3.2313,3.2372,3.2379,3.2402,3.2429,3.2432,3.2307,3.229,3.2274,3.2251,3.2434,3.2435,3.2559,3.256,3.2561]},{"header":{"parameterUnit":"m.s-1","parameterCategory":1,"la1":30.2991,"la2":30.254,"lo1":-89.0895,"lo2":-89.0444,"dy":0.0017,"dx":0.0017,"nx":28,"ny":28,"refTime":"2025-08-01T03:00:00:Z","depth":0,"parameterNumber":3,"parameterNumberName":"V-component_of_WINDS"},"data":[0,0,0,0,0,0,0,0,0,0,0,0,0,0,0,0,0,0,0,0,0,0,0,0,0,0,0,0,0,0,0,0,0,0,0,0,0,0,0,0,0,0,0,0,0,0,0,0,0,0,0,0,0,0,0,0,0,0,1.9287,1.9287,0,1.934,1.9341,1.9341,1.9304,1.9302,1.9301,1.9299,1.9355,1.9358,1.9361,0,0,0,0,0,0,0,0,0,0,0,0,0,1.9153,1.9155,1.9287,1.9287,1.9288,1.934,1.9341,1.9341,1.9304,1.9302,1.93,1.9298,1.9354,1.9358,1.9361,0,0,0,0,0,0,0,0,0,0,0,0,0,1.9209,1.9156,1.9287,1.9276,1.9275,1.934,1.9341,1.9342,1.9305,1.9302,1.93,1.9297,1.9353,1.9357,1.9362,1.944,0,0,1.9376,1.9378,0,0,0,0,0,0,0,0,1.9206,1.9214,1.9277,1.9277,1.9276,1.9313,1.9314,1.9375,1.9305,1.9294,1.9299,1.9296,1.9343,1.9348,1.9364,1.9443,1.9445,1.9376,1.9379,1.9381,1.9382,0,0,0,0,0,0,0,1.9202,1.9211,1.9308,1.9278,1.9277,1.9268,1.9273,1.9325,1.9332,1.9295,1.9292,1.9299,1.9342,1.9359,1.9365,1.9446,1.9376,1.938,1.9383,1.9385,1.959,1.9593,0,0,0,0,0,0,1.9199,1.9208,1.9306,1.9309,1.9234,1.9273,1.9278,1.9304,1.9331,1.9333,1.9301,1.9297,1.9353,1.936,1.9367,1.9459,1.9381,1.9385,1.9388,1.9587,1.9591,1.9593,0,0,0,0,0,0,1.9196,1.9208,1.9304,1.9258,1.927,1.9278,1.9306,1.9306,1.9323,1.9336,1.9337,1.9317,1.9351,1.936,1.9422,1.9461,1.9387,1.9391,1.9584,1.9588,1.9592,1.9646,0,0,0,0,0,0,1.9193,1.9207,1.9237,1.9259,1.9272,1.9358,1.9309,1.9309,1.9331,1.9326,1.9351,1.9353,1.935,1.9415,1.9426,1.9466,1.9395,1.9581,1.9586,1.9591,1.9641,1.9651,1.966,0,0,0,0,0,1.9188,1.9251,1.9239,1.9251,1.931,1.9361,1.9368,1.9363,1.9334,1.9364,1.9372,1.9352,1.9454,1.9422,1.9434,1.9475,1.9578,1.9584,1.959,1.9636,1.9649,1.966,0,0,0,0,0,0,1.9234,1.9254,1.9241,1.9313,1.9335,1.9354,1.9392,1.9377,1.9409,1.9403,1.9395,1.9401,1.9465,1.9476,1.9439,1.9552,1.9512,1.9521,1.9542,1.9555,1.9565,1.9561,1.9399,0,0,0,0,0,1.9253,1.9292,1.9307,1.9369,1.9381,1.9385,1.9407,1.94,1.9424,1.9433,1.9446,1.9469,1.9506,1.9531,1.9566,1.9642,1.9646,1.9676,1.9686,1.9694,1.9702,1.9742,1.9755,1.9614,1.9614,1.9613,0,0,1.9292,1.9307,1.9333,1.9379,1.9395,1.9436,1.9393,1.9438,1.9469,1.944,1.9499,1.9508,1.9534,1.9603,1.9633,1.9614,1.9742,1.9702,1.9708,1.9712,1.9749,1.9763,1.9775,1.9618,1.9617,1.9616,0,0,1.9383,1.9399,1.9452,1.9469,1.9495,1.9497,1.9509,1.953,1.9536,1.9594,1.9573,1.9609,1.9673,1.9692,1.971,1.9807,1.9789,1.9818,1.987,1.9909,1.992,1.993,1.9964,1.9976,1.9826,1.9826,1.9826,0,1.9429,1.9489,1.9481,1.9528,1.9548,1.9523,1.9577,1.9594,1.963,1.9645,1.9622,1.9701,1.9717,1.9789,1.9812,1.9828,1.9842,1.9816,1.9919,1.9929,1.9938,1.997,1.9983,1.983,1.9829,1.9829,1.9828,0,1.9543,1.9586,1.9625,1.966,1.9685,1.9734,1.9734,1.976,1.9751,1.9755,1.9814,1.9831,1.9869,1.9885,1.9878,1.9956,1.9943,1.992,1.988,1.9955,1.9985,1.9998,1.9834,1.9833,1.9832,1.9831,0,0,1.9668,1.9695,1.971,1.9725,1.975,1.9783,1.9831,1.9867,1.9889,1.9914,1.9954,2.0008,1.9987,2.0007,2.0001,2.0035,2.011,2.0007,2.0008,2.0026,2.0196,2.0214,2.0228,2.0098,2.01,2.0102,2.0194,0,1.976,1.9844,1.9837,1.9916,1.9955,1.993,1.9972,1.9992,1.9997,2.003,2.0035,2.0073,2.0042,2.0054,2.0087,2.0094,2.0144,2.0087,2.0135,2.0137,2.0129,2.0244,2.0263,2.0349,2.0206,2.0208,2.0209,0,1.988,1.9908,1.9991,2.0009,2.0025,2.0063,2.0095,2.0127,2.0148,2.0149,2.0171,2.0159,2.0207,2.0165,2.023,2.0192,2.0211,2.0217,2.022,2.0225,2.0178,2.0252,2.0377,2.039,2.0228,2.0227,2.0225,0,1.9962,2.002,2.0077,2.009,2.0113,2.014,2.0151,2.017,2.0192,2.022,2.0233,2.0267,2.0285,2.0311,2.0307,2.0277,2.0374,2.0332,2.0376,2.0376,2.0398,2.0397,2.0528,2.041,2.041,2.041,2.0409,0,2.0066,2.0118,2.0114,2.0149,2.0205,2.0197,2.0253,2.0261,2.0278,2.0313,2.0294,2.0328,2.0322,2.0356,2.0353,2.0408,2.0416,2.0418,2.0417,2.042,2.042,2.0433,2.0427,2.0413,2.0412,2.0412,2.0411,0,2.0167,2.0167,2.0227,2.0243,2.0248,2.0289,2.0303,2.0336,2.0338,2.0383,2.0394,2.0398,2.0436,2.0435,2.0479,2.0478,2.0544,2.0536,2.0537,2.0535,2.0579,2.0575,2.0723,2.0742,2.0612,2.0614,2.0615,0,2.0234,2.0273,2.0293,2.0315,2.0327,2.0364,2.0385,2.0378,2.0401,2.0428,2.0457,2.0494,2.0523,2.0586,2.0592,2.0626,2.0618,2.0668,2.0623,2.0625,2.0619,2.0616,2.062,2.0677,2.0678,2.0679,2.068,0,2.0353,2.035,2.0382,2.0413,2.0439,2.0464,2.0486,2.0506,2.0501,2.0527,2.0566,2.0589,2.0633,2.0669,2.0701,2.0712,2.0695,2.0694,2.0706,2.071,2.0708,2.0709,2.0561,2.0691,2.069,2.0689,2.0688,2.0688,2.0439,2.0472,2.049,2.0526,2.0542,2.0563,2.0594,2.06,2.0632,2.0667,2.066,2.0704,2.0723,2.0764,2.0777,2.0811,2.0793,2.0811,2.0815,2.082,2.0824,2.0703,2.0817,2.0816,2.0816,2.0816,2.0816,0,2.0556,2.0566,2.0599,2.0631,2.0658,2.0639,2.0663,2.0687,2.0726,2.0745,2.0773,2.0817,2.0852,2.0861,2.0894,2.0919,2.0913,2.0928,2.0927,2.0929,2.0838,2.0825,2.0933,2.0933,2.0933,2.0933,2.0933,2.0933,2.062,2.0675,2.0674,2.0736,2.0746,2.0788,2.0803,2.0822,2.0837,2.0887,2.0915,2.092,2.0935,2.0969,2.1,2.1002,2.1015,2.1034,2.1033,2.0948,2.0936,2.0925,2.0912,2.1037,2.1037,2.112,2.1121,2.1122]}]]